Volver al catálogo

FLOCK 4H 6

ActivoCienciaSSO
NORAD 66709·PAYLOAD·🇺🇸 United States

Lanzado Nov 28, 2025 desde Vandenberg Space Force Base

Loading…

Próximos Pases (próximas 24 horas)

TLE

ActualizadoSource: Space-Track

Época: Sep 13, 2026, 04:28 UTC

1 66709U 25276AV  26256.18618707  .00003104  00000-0  14225-3 0  9994
2 66709  97.4159 328.5845 0003937  48.5580 311.5993 15.21203380 43803

Sigue FLOCK 4H 6 en tiempo real con AllMySat

Download on the App Store